Regional Weather Roundup
Issued by NWS Huntsville, AL

Home | Current Version | Previous Version | Text Only | Print | Product List | Glossary On
Versions: 1 2 3 4 5 6 7 8 9 10 11 12 13 14 15 16 17 18 19 20 21 22 23 24 25 26 27 28 29 30 31 32 33 34 35 36 37 38 39 40 41 42 43 44 45 46 47 48 49 50
000
ASUS44 KHUN 200910
RWRHUN

WEATHER ROUNDUP FOR THE TENNESSEE VALLEY
NATIONAL WEATHER SERVICE HUNTSVILLE AL
400 AM CDT SAT SEP 20 2014

ALZ001>004-201000-
NORTHWEST ALABAMA

CITY           SKY/WX    TMP DP  RH WIND       PRES   REMARKS
COURTLAND HCN    N/A     70 N/A N/A SE5         N/A
RUSSELLVILLE     N/A     70 N/A N/A MISG        N/A
SHOALS AIRPORT CLEAR     69  64  84 E5        30.08S
SHOALS TVA RES   N/A     68 N/A N/A MISG        N/A
$$

ALZ005>007-016-201000-
NORTH CENTRAL ALABAMA

CITY           SKY/WX    TMP DP  RH WIND       PRES   REMARKS
CULLMAN AG STN   N/A     66 N/A N/A E5          N/A
DECATUR AP     CLEAR     68  64  87 E3        30.09S
HUNTSVILLE AP  CLEAR     70  64  81 E9        30.09R
HUN NWS/UAH      N/A     71  62  74 SE6         N/A
MERIDIANVILLE  CLEAR     70  61  73 SE5       30.10R
VINEMONT AP    FAIR      67  64  90 E3        30.11S
$$

ALZ008>010-201000-
NORTHEAST ALABAMA

CITY           SKY/WX    TMP DP  RH WIND       PRES   REMARKS
ALBERTVILLE    CLEAR     66  66 100 E7        30.10S
FORT PAYNE     PTCLDY    66  59  77 N5        30.11S
SCOTTSBORO AP    N/A     68  63  83 E3        30.12S
SCOTTSBORO HCN   N/A     68 N/A N/A MISG        N/A
VALLEY HEAD      N/A     68 N/A N/A MISG        N/A
$$

TNZ076-096-097-201000-
SOUTHEASTERN MIDDLE TENNESSEE

CITY           SKY/WX    TMP DP  RH WIND       PRES   REMARKS
FAYETTEVILLE   MOCLDY    66  63  88 S6        30.11R
TULLAHOMA      CLEAR     66  61  82 SE5       30.12S
WINCHESTER     CLEAR     68  63  83 SE15      30.11S
$$

...SURROUNDING SITES...

CITY           SKY/WX    TMP DP  RH WIND       PRES   REMARKS
ATLANTA        PTCLDY    67  63  87 E12       30.12S
ANNISTON       CLEAR     68  64  87 NE7       30.09F
BIRMINGHAM     CLEAR     70  64  81 E8        30.09S
CHATTANOOGA    CLEAR     66  61  84 CALM      30.13F
CORINTH          N/A     64  63  94 CALM      30.04S FOG
DALTON         CLEAR     61  61 100 CALM      30.13F
GADSDEN        CLEAR     64  61  88 E6        30.10S
GOLDEN TRNGL   CLEAR     72  63  73 E7        30.03R
HALEYVILLE     FAIR      67  65  93 CALM      30.10S
JACKSON TN     CLEAR     68  65  90 CALM      30.03F
LEWISBURG      FAIR      68  63  84 S5        30.08F
MEMPHIS        CLEAR     74  65  73 SE7       30.01S
MURFREESBORO   FAIR      69  62  78 SE3       30.08
NASHVILLE      CLEAR     70  63  78 SE6       30.08S
OXFORD MS      FAIR      68  64  88 SE5       30.04R
ROME           CLEAR     63  61  93 CALM      30.12F
SAVANNAH       CLEAR     68  68 100 SE5       30.05S
TUPELO         PTCLDY    72  65  78 SE5       30.03S
TUSCALOOSA     CLEAR     72  65  78 E6        30.03S
$$

...GULF COAST WEATHER...

CITY           SKY/WX    TMP DP  RH WIND       PRES   REMARKS
GULFPORT       CLEAR     74  69  85 NE6       29.93S
PASCAGOULA     CLEAR     71  68  90 NE6       29.94F
MOBILE         CLEAR     70  68  93 NE7       29.97S
GULF SHORES    SUNNY     70  67  91 NE6       29.95R
PENSACOLA      CLEAR     72  68  87 NE7       29.95S
DESTIN         CLEAR     74  68  81 E7        29.96S
PANAMA CITY    CLEAR     69  69  99 NE7       29.95F
APPALACHICOLA  CLEAR     72  67  84 NE9       29.94S
$$



USA.gov is the U.S. government's official web portal to all federal, state and local government web resources and services.